Skip Page Navigation
NASA JPL Caltech
NASA Logo - Jet Propulsion Laboratory + View the NASA Portal
+ Center for Near-Earth Object Studies
JPL Home Earth Solar System Stars & Galaxies Technology
JPL Solar System Dynamics
BODIES ORBITS EPHEMERIDES TOOLS PHYSICAL DATA DISCOVERY FAQ SITE MAP
JPL Small-Body Database Browser
Search: [ help ]  
134652 (1999 VT37)
Classification: Outer Main-belt Asteroid          SPK-ID: 2134652
Ephemeris | Orbit Diagram | Orbital Elements | Mission Design | Physical Parameters | Discovery Circumstances | Close-Approach Data ]

[ show orbit diagram ]
Orbital Elements at Epoch 2459000.5 (2020-May-31.0) TDB
Reference: JPL 20 (heliocentric ecliptic J2000)
 Element Value Uncertainty (1-sigma)   Units 
e .2452746851625902 5.0057e-08  
a 3.956731950630556 3.9672e-08 au
q 2.986245767166885 1.9695e-07 au
i 1.171275042553432 5.3134e-06 deg
node 41.37785323854018 0.0002885 deg
peri 341.9151954256794 0.00028872 deg
M 256.4698863674745 1.3128e-05 deg
tp 2459827.237356129314
(2022-Sep-04.73735613)
0.00011445 TDB
period 2874.771771843681
7.87
4.3236e-05
1.184e-07
d
yr
n .1252273323141478 1.8834e-09 deg/d
Q 4.927218134094227 4.9403e-08 au
  Orbit Determination Parameters
   # obs. used (total)      736  
   data-arc span      7570 days (20.73 yr)  
   first obs. used      1998-08-17  
   last obs. used      2019-05-09  
   planetary ephem.      DE431  
   SB-pert. ephem.      SB431-N16  
   condition code      0  
   norm. resid. RMS      .52405  
   source      ORB  
   producer      Otto Matic  
   solution date      2019-May-30 07:11:33  

Additional Information
 Earth MOID = 1.98987 au 
 Jupiter MOID = .536838 au 
 T_jup = 3.005 
[ show covariance matrix ]

Ephemeris | Orbit Diagram | Orbital Elements | Mission Design | Physical Parameters | Discovery Circumstances | Close-Approach Data ]

Physical Parameter Table
Parameter Symbol Value Units Sigma Reference Notes
absolute magnitude H 13.8   n/a MPO439835  

134652 (1999 VT37)          Discovered 1999-Nov-03 by LINEAR at Socorro
Reference: 20060907/Numbers.arcLast Updated: 2006-09-10

[ show close-approach data ]
Alternate Designations
 1999 VT37 = 1998 RP25 
Ephemeris | Orbit Diagram | Orbital Elements | Mission Design | Physical Parameters | Discovery Circumstances | Close-Approach Data ]
ABOUT SSD CREDITS/AWARDS PRIVACY/COPYRIGHT GLOSSARY LINKS
FirstGov 2020-Nov-01 02:49 UT
(server date/time)  
NASA Home Page
Site Manager:   Ryan S. Park
Webmaster  Alan B. Chamberlin